This is the latest recevied weather packets stored in our database for station/object KY0TEQ-13. If no packets are shown the sender has not sent any weather packets the latest 10 day(s).
| Time | Temp. | Humidity | Pressure | Rain* | Wind** | Luminosity | Snow |
|---|---|---|---|---|---|---|---|
| 1777992487 | 8.33° C | 37% | 1297.3 hPa | 0 mm | - | 141 W/m² | - |
| 1777992186 | 8.89° C | 36% | 1297 hPa | 0 mm | - | 109 W/m² | - |
| 1777991882 | 8.33° C | 38% | 1297.2 hPa | 0 mm | - | 107 W/m² | - |
| 1777991579 | 8.89° C | 36% | 1297.2 hPa | 0 mm | - | 128 W/m² | - |
| 1777991277 | 8.89° C | 37% | 1297.4 hPa | 0 mm | - | 138 W/m² | - |
| 1777990974 | 8.33° C | 40% | 1297.4 hPa | 0 mm | - | 126 W/m² | - |
| 1777990672 | 8.33° C | 40% | 1297.4 hPa | 0 mm | - | 109 W/m² | - |
| 1777990368 | 8.33° C | 40% | 1297.6 hPa | 0 mm | - | 107 W/m² | - |
| 1777990064 | 8.33° C | 41% | 1297.6 hPa | 0 mm | - | 115 W/m² | - |
| 1777989761 | 8.33° C | 37% | 1297.6 hPa | 0 mm | - | 103 W/m² | - |
| 1777989458 | 8.33° C | 37% | 1297.7 hPa | 0 mm | - | 90 W/m² | - |
| 1777989155 | 8.33° C | 38% | 1297.8 hPa | 0 mm | - | 81 W/m² | - |
| 1777988850 | 8.33° C | 38% | 1297.7 hPa | 0 mm | - | 79 W/m² | - |
| 1777988548 | 8.33° C | 36% | 1297.9 hPa | 0 mm | - | 76 W/m² | - |
| 1777988245 | 8.33° C | 36% | 1297.8 hPa | 0 mm | - | 64 W/m² | - |
| 1777987941 | 8.33° C | 35% | 1297.8 hPa | 0 mm | - | 59 W/m² | - |
| 1777987637 | 8.33° C | 36% | 1297.8 hPa | 0 mm | - | 64 W/m² | - |
| 1777987335 | 8.33° C | 36% | 1297.9 hPa | 0 mm | - | 72 W/m² | - |
| 1777987032 | 7.78° C | 37% | 1298.1 hPa | 0 mm | - | 60 W/m² | - |
| 1777986729 | 7.78° C | 38% | 1298.1 hPa | 0 mm | - | 54 W/m² | - |
| 1777986426 | 7.78° C | 37% | 1298.1 hPa | 0 mm | - | 39 W/m² | - |
| 1777986125 | 7.78° C | 37% | 1297.9 hPa | 0 mm | - | 27 W/m² | - |
| 1777985821 | 7.78° C | 37% | 1297.9 hPa | 0 mm | - | 15 W/m² | - |
| 1777985519 | 7.78° C | 37% | 1297.9 hPa | 0 mm | - | 15 W/m² | - |
| 1777985215 | 7.78° C | 37% | 1297.9 hPa | 0 mm | - | 14 W/m² | - |
* Rain latest hour (hover to see other rain measurements)
** Current wind speed in m/s (hover to see current wind gust speed)